Location: Newark
(50.0336°N, 22.0047°E)
Time: 09:57:02
(UTC+00:00)

Envisat - Pass Details

Date: 29 January 2020
Orbit: 764 x 766 km, 98.1° (Epoch: 22 February)

Event Time Altitude Azimuth Distance (km) Brightness Sun altitude
Rises 16:40:00 0° 180° (S) 3,221 6.4 -12.9°
Reaches altitude 10° 16:42:22 10° 185° (S) 2,299 5.7 -13.2°
Maximum altitude 16:47:17 50° 261° (W) 975 4.0 -14.0°
Drops below altitude 10° 16:52:14 10° 337° (NNW) 2,315 5.6 -14.8°
Sets 16:54:38 0° 342° (NNW) 3,246 6.3 -15.2°
